Preview of NWS' New Version of Forecast
This preview is not operational and should not be used for support decisions.
Latest weather observations around

Fryeburg, Eastern Slopes Regional Airport (KIZG)

Using English Units (Switch to International System of Units)
Date/ Time (EDT) Wind (mph) Vis. (mi) Weather Sky Cond. Temp (°F) Rel. Humidity Wind Chill (°F) Heat Index (°F) Pressure Precip. (in)
Air Dwpt 6 hour Altimeter (inHg) Sea level (inHg) 1 hr 3 hr 6 hr
Max Min
May 26 23:54 NE 8 10 Cloudy OVC055 64 46     52%     30.06 30.05      
May 26 22:54 N 6 10 Cloudy OVC050 64 55     73%     30.02 30.02      
May 26 22:02 Calm 3 Fog/Mist SCT002 BKN036 OVC049 64 64     100%     29.99        
May 26 21:54 Calm 3 Fog/Mist BKN002 BKN037 OVC049 64 64     100%     29.99 29.98      
May 26 21:42 Calm 6 Fog/Mist FEW001 BKN038 OVC048 65 64     97%     29.97        
May 26 21:33 Calm 2 Fog/Mist FEW001 SCT038 OVC048 64 63     96%     29.97        
May 26 21:00 Calm 3 Fog/Mist SCT002 BKN044 64 64     100%     29.94        
May 26 20:57 W 3 2 Fog/Mist BKN002 BKN044 64 64     100%     29.94        
May 26 20:53 Calm 1 Fog/Mist BKN002 BKN044 64 64     100%     29.94 29.94      
May 26 20:52 Calm 1 Fog/Mist BKN002 BKN044 64 64     100%     29.94        
May 26 20:39 Calm 0.75 Fog/Mist FEW002 BKN044 64 64     100%     29.93        
May 26 20:36 Calm 1.5 Fog/Mist FEW002 BKN044 65 65     100%     29.93        
May 26 20:33 Calm 4 Fog/Mist FEW002 SCT044 66 65     96%     29.93        
May 26 20:26 Calm 2 Fog/Mist FEW002 66 65     96%     29.93        
May 26 20:18 Calm 1.75 Fog/Mist CLR 65 65     100%     29.92        
May 26 19:54 Calm 7 Clear CLR 67 65     93%     29.91 29.91     0
May 26 18:54 Calm 10 Cloudy SCT070 OVC095 67 66     97%     29.88 29.88      
May 26 17:54 Calm 10 Cloudy BKN065 OVC095 67 66     97%     29.86 29.86 0    
May 26 16:54 Calm 8 Light Rain OVC060 67 65     93%     29.85 29.85 0 0  
May 26 15:54 NE 5 7 Light Rain OVC060 67 65     93%     29.83 29.83 0    
May 26 14:54 Calm 10 Light Rain BKN075 OVC100 70 64     81%     29.81 29.81 0    
May 26 13:54 N 8 10 Mostly Cloudy BKN075 BKN090 73 62     68%   73 29.8 29.79 0   0
May 26 12:54 Calm 10 Light Rain FEW026 FEW055 BKN110 72 62     71%   72 29.76 29.75 0    
May 26 11:54 WSW 5 10 Cloudy OVC090 72 63     73%   72 29.76 29.75      
May 26 10:54 W 6 10 Clear CLR 73 60     64%   73 29.74 29.73      
May 26 09:54 WNW 5 10 Cloudy OVC048 71 59     66%   71 29.74 29.73      
May 26 08:54 SW 5 10 Clear CLR 68 59     73%     29.71 29.71      
May 26 07:54 W 5 10 Clear CLR 66 57     73%     29.7 29.7     0
May 26 06:54 W 3 10 Clear CLR 65 60     84%     29.7 29.69      
May 26 05:54 W 6 10 Clear CLR 66 56     70%     29.69 29.69      
May 26 04:54 SW 6 10 Partly Cloudy SCT090 66 56     70%     29.69 29.68   0  
May 26 03:54 WSW 6 10 Clear CLR 66 57     73%     29.67 29.67      
May 26 02:54 WSW 6 10 Cloudy OVC110 67 58     73%     29.69 29.68 0    
May 26 01:54 W 3 10 Light Rain OVC110 68 57     68%     29.71 29.7 0   0
May 26 00:54 SW 6 10 Cloudy OVC070 69 57     65%     29.71 29.7 0    
May 25 23:54 WSW 7 10 Cloudy OVC100 75 52     45%   74 29.71 29.7      
May 25 22:54 Calm 10 Cloudy OVC110 72 56     57%   72 29.7 29.69      
May 25 21:54 WSW 5 10 Clear CLR 75 53     46%   74 29.7 29.7      
May 25 20:54 SW 5 10 Clear CLR 73 54     51%   72 29.7 29.69      
May 25 19:54 WSW 7 10 Clear CLR 77 52     42%   76 29.7 29.69      
May 25 18:54 WSW 8 10 Cloudy BKN075 OVC090 81 51     35%   80 29.69 29.68      
May 25 17:54 W 10 10 Cloudy OVC075 80 50     35%   79 29.69 29.69      
May 25 16:54 W 6 10 Cloudy OVC080 81 51     35%   80 29.7 29.69      
May 25 15:54 W 9 10 Cloudy OVC080 82 50     33%   81 29.7 29.69      
May 25 14:54 W 17 10 Clear CLR 84 49     30%   82 29.7 29.69      
May 25 13:54 W 10 10 Clear CLR 87 49     27%   84 29.71 29.71      
May 25 12:54 6 10 Clear CLR 84 50     31%   82 29.73 29.73      
May 25 11:54 5 10 Clear CLR 82 50     33%   81 29.76 29.76      
May 25 10:54 7 10 Clear CLR 80 49     34%   79 29.78 29.78      
May 25 09:54 WSW 9 10 Clear CLR 79 48     34%   78 29.8 29.8      
May 25 08:54 WSW 7 10 Clear CLR 75 47     37%   74 29.82 29.81      
May 25 07:54 SW 9 10 Clear CLR 72 46     40%   71 29.83 29.83      
May 25 06:54 6 10 Clear CLR 67 45     45%     29.84 29.84      
Notice The following observation data may not be complete
May 25 05:54 WSW 6 10 Clear CLR   42      %     29.85 29.85      
Notice The following observation data may not be complete
May 25 04:54 WSW 9 10 Clear CLR   41      %     29.85 29.85      
Notice The following observation data may not be complete
May 25 03:54 WSW 9 10 Clear CLR   40      %     29.86 29.86      
Notice The following observation data may not be complete
May 25 02:54 WSW 9 10 Clear CLR   39      %     29.88 29.88      
May 25 01:54 Calm 10 Clear CLR 46 42     86%     29.91 29.91      
May 25 00:54 Calm 10 Clear CLR 47 42     83%     29.95 29.95      
May 24 23:54 Calm 10 Clear CLR 47 45     93%     29.98 29.98      
May 24 22:54 Calm 10 Clear CLR 50 44     80%     29.99 29.99      
May 24 21:54 SSE 3 10 Clear CLR 52 45     77%     30.01 30.01      
May 24 20:54 SW 6 10 Clear CLR 58 41     53%     30.01 30.01      
May 24 19:54 Calm 10 Clear CLR 66 40     38%     30 30      
May 24 18:54 Calm 10 Clear CLR 71 35     27%   69 30 30      
May 24 17:54 NW 9 10 Clear CLR 73 36     26%   71 30 30      
May 24 16:54 W 10 10 Mostly Clear FEW110 73 35     25%   71 30.01 30.01      
May 24 15:54 WNW 9 10 Clear CLR 72 35     26%   70 30.02 30.03      
May 24 14:54 WNW 10 10 Clear CLR 71 32     24%   69 30.04 30.04      
May 24 13:54 6 10 Clear CLR 72 32     23%   70 30.05 30.05      
May 24 12:54 6 10 Clear CLR 70 30     23%     30.07 30.07      
May 24 11:54   10 Clear CLR 69 32     25%     30.09 30.09      
May 24 10:54 N 7 10 Clear CLR 66 38     36%     30.1 30.1      
May 24 09:54 N 8 10 Clear CLR 63 40     43%     30.1 30.1      
May 24 08:54 NW 5 10 Mostly Cloudy BKN100 60 48     64%     30.1 30.1      
May 24 08:16 Calm 10 Cloudy SCT019 OVC100 57 49     74%     30.1        
May 24 07:54 Calm 10 Cloudy BKN020 OVC100 55 48     77%     30.1 30.1      
May 24 07:46 Calm 10 Cloudy SCT020 OVC100 55 48     77%     30.09        
May 24 06:54 Calm 10 Cloudy OVC020 53 49     86%     30.08 30.08      
May 24 05:54 Calm 10 Cloudy OVC028 51 48     89%     30.05 30.06      
May 24 05:44 Calm 10 Cloudy OVC028 50 48     93%     30.05        
May 24 05:31 Calm 10 Mostly Cloudy BKN030 49 48     97%     30.05        
May 24 04:54 Calm 10 Mostly Cloudy BKN028 BKN033 49 48     97%     30.04 30.04      
May 24 03:54 Calm 10 Mostly Cloudy FEW023 BKN034 51 48     89%     30.02 30.02      
May 24 03:50 S 3 10 Mostly Cloudy FEW023 BKN034 52 48     87%     30.02        
May 24 03:19 Calm 10 Cloudy OVC029 52 49     89%     30.02        
May 24 02:54 Calm 10 Cloudy SCT030 BKN035 OVC043 52 49     89%     30.02 30.02      
May 24 02:31 SSW 3 10 Cloudy FEW024 OVC036 50 48     93% 49   30.02        
May 24 02:23 Calm 10 Cloudy FEW025 BKN029 OVC035 51 48     89%     30.02        
May 24 02:12 Calm 10 Cloudy FEW024 OVC030 50 48     93%     30.03        
May 24 01:54 Calm 10 Cloudy OVC029 50 48     93%     30.03 30.03      
May 24 01:32 Calm 10 Mostly Cloudy BKN029 BKN070 49 47     93%     30.02        
May 24 00:54 SE 3 10 Clear CLR 54 48     80%     30.03 30.03      
May 23 23:54 Calm 10 Mostly Clear FEW090 58 47     67%     30 30      
May 23 22:54 SE 9 10 Mostly Cloudy BKN070 BKN080 62 46     56%     29.98 29.98      
May 23 21:54 SW 3 10 Cloudy OVC090 57 50     77%     29.96 29.96      
May 23 20:54 WNW 3 10 Partly Cloudy FEW070 SCT100 56 50     80%     29.95 29.95      
May 23 19:54 N 5 10 Partly Cloudy SCT085 67 43     42%     29.93 29.93      
May 15 11:54 SW 8 10 Mostly Cloudy BKN110 75 58     55%   75 29.73 29.73      
May 15 04:54 Calm 10 Clear CLR 47 46     97%     29.8 29.8      
May 13 19:54 S 7 10 Clear CLR 59 31     34%     30.05 30.06      
May 13 06:54 Calm 10 Clear CLR 38 36     92%     30.19 30.2      
May 13 02:08 Calm 1.5 Fog/Mist FEW002 33 32     96%     30.14        
May 12 18:54 7 10 Clear CLR 54 32     43%     30.07 30.08      
May 12 16:54 SSW 9 10 Clear   60 29     31%     30.06 30.07      
May 12 11:54 S 9 10 Clear CLR 60 26     27%     30.16 30.16      
May 12 04:54 W 3 3 Fog/Mist CLR 29 28     96% 25   30.2 30.21      
May 12 04:50 W 3 2 Fog/Mist FEW002 28 27     93% 25   30.2        
May 12 03:54 Calm 10 Clear CLR 31 29     92%     30.2 30.2      
May 12 00:54 Calm 10 Clear CLR 35 29     78%     30.17 30.18      
May 11 20:54 NW 3 10 Clear CLR 50 18     28% 49   30.1 30.11      
May 11 15:54   10 Clear CLR 62 17     17%     29.97 29.98      
Jun 11 23:54 SW 6 10 Clear CLR 74 60     62%   74 29.89 29.88      
Jun 10 04:54 Calm 10 Clear CLR 54 49     83%     29.86 29.86      
Jun 10 01:54 WSW 6 10 Clear CLR 62 50     65%     29.81 29.8      
Jun 09 15:54 SW 7 10 Clear CLR 68 58     70%     29.58 29.58      
Jun 07 22:54 Calm 10 Clear CLR 53 52     96%     29.98 29.98      
Jun 05 22:28 6 10 Cloudy FEW009 BKN022 OVC027 51 49     92%     29.99   0